User: anonymous   Login
Location: Columbia
(38.9520°N, 92.3340°W)
Time: 22:29:29
(UTC-06:00)
Language:

Cosmos 1633 - Orbit

View from above orbital plane
View from above orbital plane
View from above satellite
View from above satellite

Ground track
Ground track

The orbit data is extracted from the following two-line orbital elements,

1 15592U 85020A   16339.05602118  .00001953  00000-0  70416-4 0  9992
2 15592  82.5368 154.7196 0014702 142.2567 217.9707 15.27812337734499
Epoch (UTC): 04 December 2016 01:20:40
Eccentricity: 0.0014702
inclination: 82.5368°
perigee height: 472 km
apogee height: 492 km
right ascension of ascending node: 154.7196°
argument of perigee: 142.2567°
revolutions per day: 15.27812337
mean anomaly at epoch: 217.9707°
orbit number at epoch: 73449

The dashed part of the orbit path shows where the satellite is in the earth's shadow,  

DLR